FW4469 Weather Reports


Display with metric or nautical units.
time (UTC)temp
F
wind
direction
speed
MPH
gust
MPH
rain 1hr
in
rain 24hr
in
rain mn
in
humidity
%
barometer
mb
20210616163003 75 122 1.0 5.0 0.00 0.00 0.00 57 1010.3
20210616162004 74 289 2.0 5.0 0.00 0.00 0.00 59 1010.3
20210616161003 74 308 1.0 4.0 0.00 0.00 0.00 58 1010.2
20210616160005 73 292 1.0 3.0 0.00 0.00 0.00 60 1010.2
20210616155003 73 113 1.0 3.0 0.00 0.00 0.00 60 1010.4
20210616154003 74 270 1.0 7.0 0.00 0.00 0.00 60 1010.4
20210616153004 74 105 1.0 5.0 0.00 0.00 0.00 60 1010.4
20210616152004 74 297 2.0 6.0 0.00 0.00 0.00 60 1010.4
20210616151004 73 279 1.0 4.0 0.00 0.00 0.00 63 1010.8
20210616150004 75 301 1.0 4.0 0.00 0.00 0.00 59 1010.8
20210616145004 74 105 2.0 5.0 0.00 0.00 0.00 61 1010.9
20210616144004 74 235 2.0 6.0 0.00 0.00 0.00 60 1010.9
20210616143003 74 273 1.0 5.0 0.00 0.00 0.00 62 1010.9
20210616142004 73 200 1.0 6.0 0.00 0.00 0.00 58 1011.1
20210616141004 74 347 2.0 6.0 0.00 0.00 0.00 59 1011.1
20210616140004 74 244 1.0 5.0 0.00 0.00 0.00 58 1011.1
20210616135004 74 77 2.0 6.0 0.00 0.00 0.00 60 1011.0
20210616134004 73 273 1.0 3.0 0.00 0.00 0.00 59 1011.0
20210616133003 74 101 1.0 6.0 0.00 0.00 0.00 57 1011.1
20210616132003 73 125 2.0 8.0 0.00 0.00 0.00 58 1011.1
20210616131004 72 278 1.0 5.0 0.00 0.00 0.00 61 1011.3
20210616130004 72 119 2.0 6.0 0.00 0.00 0.00 58 1011.2
20210616125004 70 277 2.0 6.0 0.00 0.00 0.00 60 1011.3
20210616124004 70 291 2.0 6.0 0.00 0.00 0.00 59 1011.4
20210616123004 71 288 1.0 4.0 0.00 0.00 0.00 57 1011.4
20210616122003 71 300 1.0 6.0 0.00 0.00 0.00 59 1011.4
20210616121003 70 280 1.0 5.0 0.00 0.00 0.00 58 1011.4
20210616120003 70 289 1.0 7.0 0.00 0.00 0.00 59 1011.6
20210616115004 70 90 1.0 4.0 0.00 0.00 0.00 58 1011.7
20210616114003 70 321 1.0 5.0 0.00 0.00 0.00 60 1011.8
20210616113003 69 285 2.0 6.0 0.00 0.00 0.00 63 1011.7
20210616112003 68 298 2.0 5.0 0.00 0.00 0.00 64 1012.0
20210616111004 68 282 1.0 5.0 0.00 0.00 0.00 62 1012.1
20210616110004 68 300 2.0 5.0 0.00 0.00 0.00 64 1012.0
20210616105003 68 294 1.0 6.0 0.00 0.00 0.00 68 1012.1
20210616104004 67 274 1.0 4.0 0.00 0.00 0.00 65 1012.0
20210616103004 66 292 2.0 5.0 0.00 0.00 0.00 66 1012.2
20210616102004 66 281 2.0 6.0 0.00 0.00 0.00 66 1012.1
20210616101004 66 274 1.0 3.0 0.00 0.00 0.00 68 1012.1
20210616100003 66 111 1.0 4.0 0.00 0.00 0.00 65 1012.1
20210616095003 65 99 1.0 4.0 0.00 0.00 0.00 68 1012.3
20210616094003 65 292 1.0 5.0 0.00 0.00 0.00 70 1012.4
20210616093004 64 277 1.0 6.0 0.00 0.00 0.00 72 1012.3
20210616092003 64 285 2.0 3.0 0.00 0.00 0.00 74 1012.3
20210616091003 64 297 1.0 5.0 0.00 0.00 0.00 73 1012.5
20210616090005 63 297 2.0 4.0 0.00 0.00 0.00 75 1012.5
20210616085003 62 276 1.0 4.0 0.00 0.00 0.00 78 1012.5
20210616084003 62 289 1.0 3.0 0.00 0.00 0.00 77 1012.6
20210616083003 61 291 2.0 4.0 0.00 0.00 0.00 79 1012.6
20210616082003 61 290 1.0 6.0 0.00 0.00 0.00 80 1012.6
20210616081003 61 279 2.0 4.0 0.00 0.00 0.00 80 1012.5
20210616080003 61 280 2.0 4.0 0.00 0.00 0.00 79 1012.7
20210616075003 60 291 1.0 4.0 0.00 0.00 0.00 80 1012.7
20210616074003 60 293 2.0 4.0 0.00 0.00 0.00 82 1012.7
20210616073003 59 288 1.0 6.0 0.00 0.00 0.00 81 1012.8
20210616072004 59 282 2.0 6.0 0.00 0.00 0.00 82 1012.8
20210616071003 58 275 2.0 4.0 0.00 0.00 0.00 82 1012.7
20210616070003 58 286 2.0 4.0 0.00 0.00 0.00 83 1012.7
20210616065003 57 287 1.0 4.0 0.00 0.00 0.00 84 1012.6
20210616064003 57 279 1.0 3.0 0.00 0.00 0.00 85 1012.6
20210616063003 56 279 1.0 5.0 0.00 0.00 0.00 86 1012.8
20210616062003 56 276 1.0 4.0 0.00 0.00 0.00 86 1012.8
20210616061003 56 289 1.0 3.0 0.00 0.00 0.00 87 1012.9
20210616060003 55 288 0.0 3.0 0.00 0.00 0.00 88 1012.8
20210616055003 54 302 0.0 4.0 0.00 0.00 0.00 88 1012.9
20210616054003 54 279 0.0 1.0 0.00 0.00 0.00 88 1013.0
20210616053003 53 269 0.0 1.0 0.00 0.00 0.00 88 1012.8
20210616052003 53 281 0.0 1.0 0.00 0.00 0.00 88 1013.0
20210616051003 53 285 0.0 1.0 0.00 0.00 0.00 87 1012.9
20210616050003 53 283 0.0 1.0 0.00 0.00 0.00 86 1013.1
20210616045003 53 279 0.0 1.0 0.00 0.00 0.00 86 1013.1
20210616044003 54 293 0.0 1.0 0.00 0.00 0.00 86 1013.2
20210616043003 53 0 0.0 0.0 0.00 0.00 0.00 87 1013.2
20210616042003 53 285 0.0 1.0 0.00 0.00 0.00 87 1013.3
20210616041003 54 0 0.0 1.0 0.00 0.00 0.00 86 1013.3
20210616040004 54 0 0.0 0.0 0.00 0.00 0.00 85 1013.4
20210616035003 54 279 0.0 1.0 0.00 0.00 0.00 85 1013.5
20210616034003 54 281 0.0 2.0 0.00 0.00 0.00 85 1013.4
20210616033003 54 275 0.0 1.0 0.00 0.00 0.00 84 1013.6
20210616032004 55 298 0.0 1.0 0.00 0.00 0.00 83 1013.7
20210616031003 55 274 0.0 1.0 0.00 0.00 0.00 83 1013.9
20210616030003 55 260 0.0 1.0 0.00 0.00 0.00 83 1013.9
20210616025003 55 0 0.0 0.0 0.00 0.00 0.00 82 1014.0
20210616024003 55 0 0.0 0.0 0.00 0.00 0.00 82 1014.2
20210616023003 55 264 0.0 1.0 0.00 0.00 0.00 81 1014.4
20210616022003 55 266 0.0 1.0 0.00 0.00 0.00 80 1014.5
20210616021003 55 275 0.0 2.0 0.00 0.00 0.00 79 1014.6
20210616020003 55 292 0.0 1.0 0.00 0.00 0.00 79 1014.7
20210616015003 55 267 0.0 2.0 0.00 0.00 0.00 79 1014.8
20210616014004 55 261 0.0 1.0 0.00 0.00 0.00 78 1014.8
20210616013003 55 272 0.0 1.0 0.00 0.00 0.00 78 1015.1
20210616012003 55 270 0.0 2.0 0.00 0.00 0.00 78 1015.2
20210616011003 56 277 0.0 1.0 0.00 0.00 0.00 77 1015.2
20210616010003 56 283 0.0 1.0 0.00 0.00 0.00 77 1015.2
20210616005003 55 283 0.0 1.0 0.00 0.00 0.00 77 1015.3
20210616004003 56 215 0.0 1.0 0.00 0.00 0.00 76 1015.4
20210616003003 56 0 0.0 0.0 0.00 0.00 0.00 76 1015.5
20210616002003 56 0 0.0 0.0 0.00 0.00 0.00 75 1015.7
20210616001003 56 0 0.0 0.0 0.00 0.00 0.00 73 1015.7
20210616000003 57 0 0.0 0.0 0.00 0.00 0.00 72 1015.8
20210615235003 56 0 0.0 0.0 0.00 0.00 0.00 71 1016.0
20210615234003 56 0 0.0 0.0 0.00 0.00 0.00 71 1016.1
20210615233003 56 0 0.0 0.0 0.00 0.00 0.00 71 1016.3
20210615232003 56 239 0.0 1.0 0.00 0.00 0.00 71 1016.6
20210615231003 56 240 0.0 1.0 0.00 0.00 0.00 70 1016.6
20210615230003 56 0 0.0 0.0 0.00 0.00 0.00 70 1016.6
20210615225003 57 0 0.0 0.0 0.00 0.00 0.00 70 1016.7
20210615224003 57 0 0.0 0.0 0.00 0.00 0.00 69 1017.0
20210615223003 58 0 0.0 0.0 0.00 0.00 0.00 68 1017.1
20210615222003 57 0 0.0 0.0 0.00 0.00 0.00 68 1017.1
20210615221003 58 240 0.0 1.0 0.00 0.00 0.00 67 1017.1
20210615220003 58 0 0.0 1.0 0.00 0.00 0.00 67 1017.1
20210615215003 58 0 0.0 1.0 0.00 0.00 0.00 65 1017.3
20210615214003 59 0 0.0 0.0 0.00 0.00 0.00 64 1017.3
20210615213003 59 0 0.0 0.0 0.00 0.00 0.00 62 1017.2
20210615212003 60 0 0.0 0.0 0.00 0.00 0.00 60 1017.4
20210615211003 60 0 0.0 0.0 0.00 0.00 0.00 59 1017.5
20210615210003 61 217 0.0 1.0 0.00 0.00 0.00 57 1017.5
20210615205003 62 124 0.0 2.0 0.00 0.00 0.00 56 1017.6
20210615204004 62 137 1.0 5.0 0.00 0.00 0.00 54 1017.6
20210615203004 63 125 0.0 2.0 0.00 0.00 0.00 53 1017.6
20210615202003 64 133 0.0 2.0 0.00 0.00 0.00 52 1017.6
20210615201003 66 122 0.0 2.0 0.00 0.00 0.00 53 1017.7
20210615200003 67 123 0.0 2.0 0.00 0.00 0.00 52 1017.6
20210615195003 67 143 0.0 2.0 0.00 0.00 0.00 52 1017.6
20210615194004 68 159 0.0 1.0 0.00 0.00 0.00 52 1017.7
20210615193003 69 162 0.0 2.0 0.00 0.00 0.00 51 1017.8
20210615192003 70 116 0.0 2.0 0.00 0.00 0.00 51 1017.8
20210615191003 70 283 0.0 3.0 0.00 0.00 0.00 52 1018.0
20210615190004 70 130 0.0 1.0 0.00 0.00 0.00 54 1018.1
20210615185004 70 164 0.0 2.0 0.00 0.00 0.00 55 1018.1
20210615184004 69 143 1.0 3.0 0.00 0.00 0.00 56 1018.1
20210615183003 71 147 1.0 4.0 0.00 0.00 0.00 53 1018.1
20210615182003 72 146 1.0 4.0 0.00 0.00 0.00 54 1018.3
20210615181003 72 113 1.0 5.0 0.00 0.00 0.00 55 1018.3
20210615180004 72 123 1.0 7.0 0.00 0.00 0.00 55 1018.4
20210615175004 72 93 1.0 5.0 0.00 0.00 0.00 55 1018.4
20210615174004 72 139 2.0 6.0 0.00 0.00 0.00 55 1018.5
20210615173003 72 118 1.0 5.0 0.00 0.00 0.00 55 1018.6
20210615172004 72 119 2.0 6.0 0.00 0.00 0.00 57 1018.8
20210615171003 72 197 1.0 5.0 0.00 0.00 0.00 56 1018.8
20210615170003 72 177 1.0 4.0 0.00 0.00 0.00 57 1019.0
20210615165003 71 170 2.0 8.0 0.00 0.00 0.00 56 1019.2
20210615164004 71 307 1.0 5.0 0.00 0.00 0.00 56 1019.3